Waarnemingen

Advertentie
Mijn weer
Hyeres, Frankrijk (7667): temperatuur & dauwpunt: 11.06.2019 23:00:00 - 17.06.2019 23:00:00 (CEST)Hyeres, Frankrijk (7667): temperatuur 5cm: 11.06.2019 23:00:00 - 17.06.2019 23:00:00 (CEST)Hyeres, Frankrijk (7667): windsnelheid & windstoten: 11.06.2019 23:00:00 - 17.06.2019 23:00:00 (CEST)Hyeres, Frankrijk (7667): windrichting: 11.06.2019 23:00:00 - 17.06.2019 23:00:00 (CEST)Hyeres, Frankrijk (7667): luchtdruk: 11.06.2019 23:00:00 - 17.06.2019 23:00:00 (CEST)Hyeres, Frankrijk (7667): zicht: 11.06.2019 23:00:00 - 17.06.2019 23:00:00 (CEST)Hyeres, Frankrijk (7667): neerslag: 11.06.2019 23:00:00 - 17.06.2019 23:00:00 (CEST)
Datum & Tijd tt [°C] td [°C] tt 5cm [°C] ff [km/u] ff [kn] fx [km/u] fx [kn] dd ppp [hPa] vv [km] rr [mm]
17.06.2019 23:00:00 - - - - - - - - - - -
17.06.2019 22:00:00 20,5 18,4 17,7 13 7 18 10 ZW 1015,4 12 0,0
17.06.2019 21:00:00 21,5 17,9 19,4 9 5 17 9 ZZW 1015,0 20 0,0
17.06.2019 20:00:00 22,5 16,3 24,5 11 6 14 8 Z 1014,9 21 0,0
17.06.2019 19:00:00 23,5 17,7 28,6 9 5 18 10 ZZW 1014,7 20 0,0
17.06.2019 18:00:00 23,6 17,8 30,2 13 7 25 14 Z 1015,0 20 0,0
17.06.2019 17:00:00 23,5 18,2 30,6 14 8 26 14 ZZW 1015,3 19 0,0
17.06.2019 16:00:00 23,6 18,0 32,1 16 9 23 13 ZW 1015,8 24 0,0
17.06.2019 15:00:00 24,9 17,6 32,8 11 6 23 12 ZO 1016,1 19 0,0
17.06.2019 14:00:00 23,7 18,3 31,3 16 9 31 17 ZO 1016,1 19 0,0
17.06.2019 13:00:00 23,9 16,9 31,3 17 9 27 15 OZO 1015,8 20 0,0
17.06.2019 12:00:00 23,9 17,4 30,5 12 6 25 14 OZO 1016,0 20 0,0
17.06.2019 11:00:00 22,7 17,8 29,0 14 8 25 13 OZO 1016,4 20 0,0
17.06.2019 10:00:00 22,6 17,5 28,0 12 7 21 11 OZO 1016,2 20 0,0
17.06.2019 09:00:00 22,7 17,2 25,9 5 3 10 5 ZO 1016,0 16 0,0
17.06.2019 08:00:00 20,6 16,4 17,0 3 1 9 5 NNW 1015,5 18 0,0
17.06.2019 07:00:00 16,2 14,6 11,6 4 2 7 4 NO 1015,3 14 0,0
17.06.2019 06:00:00 16,2 15,1 10,8 5 3 9 5 NNO 1015,0 15 0,2
17.06.2019 05:00:00 15,8 14,7 10,3 7 4 9 5 N 1014,9 10 0,0
17.06.2019 04:00:00 15,2 13,7 10,5 5 3 9 5 NNO 1014,8 10 0,0
17.06.2019 03:00:00 15,7 14,4 12,1 6 3 9 5 NNO 1014,5 15 0,0
17.06.2019 02:00:00 16,1 14,6 11,1 5 3 7 4 NNO 1014,5 14 0,0
17.06.2019 01:00:00 17,0 15,2 10,8 4 2 7 4 N 1014,9 20 0,0
17.06.2019 00:00:00 17,2 14,8 11,5 6 4 9 5 NNO 1015,1 26 0,0
16.06.2019 23:00:00 18,8 16,2 12,7 4 2 5 3 NNO 1015,3 32 0,0
16.06.2019 22:00:00 19,7 17,3 14,3 4 2 5 3 NO 1015,0 32 0,0
16.06.2019 21:00:00 21,5 16,2 18,4 3 2 10 5 ONO 1015,0 42 0,0
16.06.2019 20:00:00 23,0 15,6 25,7 6 3 14 8 ZO 1015,0 47 0,0
16.06.2019 19:00:00 24,3 14,7 28,7 11 6 19 10 ZO 1015,1 20 0,0
16.06.2019 18:00:00 24,4 15,6 30,8 11 6 21 11 ZZW 1015,3 50 0,0
16.06.2019 17:00:00 25,2 14,6 31,8 13 7 22 12 ZO 1015,5 20 0,0
16.06.2019 16:00:00 24,5 16,0 31,9 16 9 23 12 ZO 1015,8 20 0,0
16.06.2019 15:00:00 24,8 16,0 33,7 12 6 21 12 ZO 1016,0 20 0,0
16.06.2019 14:00:00 24,0 15,5 32,7 12 6 22 12 Z 1016,1 20 0,0
16.06.2019 13:00:00 23,8 15,8 32,9 12 6 23 12 ZZO 1016,3 20 0,0
16.06.2019 12:00:00 23,4 16,4 30,9 14 8 25 14 ZZO 1016,4 20 0,0
16.06.2019 11:00:00 22,6 15,9 29,8 15 8 26 14 ZO 1016,4 20 0,0
16.06.2019 10:00:00 25,4 11,9 30,5 3 2 16 9 NO 1015,9 57 0,0
16.06.2019 09:00:00 23,3 11,7 27,2 9 5 13 7 NNO 1016,0 60 0,0
16.06.2019 08:00:00 21,6 11,9 18,4 4 2 20 11 N 1015,7 60 0,0
16.06.2019 07:00:00 18,4 12,6 9,7 12 6 21 11 NNW 1015,2 60 0,0
16.06.2019 06:00:00 15,7 12,8 8,6 9 5 13 7 NW 1015,0 45 0,0
16.06.2019 05:00:00 15,9 13,9 9,1 5 3 14 8 NW 1014,9 18 0,0
16.06.2019 04:00:00 17,4 15,0 9,6 11 6 16 8 NW 1015,3 23 0,0
16.06.2019 03:00:00 17,2 15,5 10,5 7 4 12 6 NW 1015,5 19 0,0
16.06.2019 02:00:00 16,8 15,0 11,4 5 3 9 5 N 1015,9 13 0,0
16.06.2019 01:00:00 17,9 16,1 11,5 5 3 8 4 WZW 1015,9 18 0,0
16.06.2019 00:00:00 17,9 16,1 12,1 4 2 7 4 NNO 1016,1 13 0,0
15.06.2019 23:00:00 18,5 15,9 13,6 0 0 6 3 N 1015,8 14 0,0
15.06.2019 22:00:00 20,1 16,9 16,9 2 1 17 9 OZO 1015,5 23 0,0
15.06.2019 21:00:00 20,1 17,9 18,4 13 7 35 19 ZZW 1015,3 20 0,0
15.06.2019 20:00:00 21,0 17,6 21,8 16 8 34 18 ZW 1015,2 20 0,0
15.06.2019 19:00:00 21,8 17,2 25,0 23 13 35 19 ZW 1015,1 35 0,0
15.06.2019 18:00:00 21,8 17,8 26,5 26 14 34 18 ZW 1015,5 18 0,0
15.06.2019 17:00:00 22,3 17,4 28,1 19 10 30 16 ZW 1016,0 18 0,0
15.06.2019 16:00:00 23,2 17,6 30,1 19 10 29 15 ZW 1016,3 19 0,0
15.06.2019 15:00:00 22,5 17,2 31,6 17 9 27 15 ZZW 1016,6 19 0,0
15.06.2019 14:00:00 22,9 16,9 31,6 16 9 28 15 ZZW 1017,0 20 0,0
15.06.2019 13:00:00 22,1 17,0 28,7 14 8 24 13 ZW 1017,2 19 0,0
15.06.2019 12:00:00 22,6 17,3 25,7 11 6 21 11 ZZW 1017,2 19 0,0
15.06.2019 11:00:00 21,0 16,4 25,0 6 4 16 9 Z 1017,1 18 0,0
15.06.2019 10:00:00 20,6 16,6 21,9 7 4 16 8 ZW 1016,6 17 0,0
15.06.2019 09:00:00 19,5 17,3 19,0 8 4 13 7 ZW 1016,4 13 0,0
15.06.2019 08:00:00 18,8 17,6 17,2 5 3 10 6 ZW 1016,1 6 0,0
15.06.2019 07:00:00 18,3 17,8 11,8 3 1 6 3 ZW 1015,6 6 0,0
15.06.2019 06:00:00 17,4 16,4 11,5 3 1 4 2 ZW 1015,1 6 0,0
15.06.2019 05:00:00 17,7 16,9 12,1 3 2 8 4 NO 1015,1 3,2 0,0
15.06.2019 04:00:00 18,6 17,6 15,7 3 1 10 6 NNW 1014,8 8 0,0
15.06.2019 03:00:00 19,0 18,2 17,3 5 3 16 8 WNW 1014,8 5 0,0
15.06.2019 02:00:00 19,1 18,3 17,6 8 5 12 6 ZW 1014,7 1,0 0,0
15.06.2019 01:00:00 19,4 18,2 17,7 5 3 15 8 Z 1014,7 4,7 0,0
15.06.2019 00:00:00 19,4 18,6 17,7 8 5 22 12 OZO 1014,3 3,7 0,0
14.06.2019 23:00:00 19,7 18,7 17,9 14 7 28 15 OZO 1013,8 2,8 0,0
14.06.2019 22:00:00 20,5 18,8 18,9 19 10 34 19 OZO 1012,9 6 0,0
14.06.2019 21:00:00 20,8 18,9 18,9 20 11 34 18 ZO 1011,9 6 0,0
14.06.2019 20:00:00 21,1 18,7 20,3 15 8 24 13 O 1011,6 8 0,0
14.06.2019 19:00:00 22,8 17,5 24,5 14 8 44 24 O 1010,5 16 0,0
14.06.2019 18:00:00 24,7 16,1 26,9 24 13 51 28 O 1010,1 17 0,0
14.06.2019 17:00:00 24,9 15,8 24,6 27 15 58 32 O 1009,9 19 0,0
14.06.2019 16:00:00 25,7 13,5 24,2 31 17 61 33 O 1009,6 20 0,0
14.06.2019 15:00:00 26,1 13,2 26,2 34 18 67 36 O 1009,7 20 0,0
14.06.2019 14:00:00 27,7 10,8 27,4 42 23 70 38 O 1009,9 20 0,0
14.06.2019 13:00:00 28,6 11,2 28,2 40 22 71 38 O 1009,7 20 0,0
14.06.2019 12:00:00 28,7 12,2 28,3 44 24 71 38 O 1010,3 18 0,0
14.06.2019 11:00:00 28,6 11,2 30,0 38 21 62 33 O 1010,5 20 0,0
14.06.2019 10:00:00 27,7 12,9 24,5 25 13 44 24 ONO 1011,3 43 0,0
14.06.2019 09:00:00 26,0 11,4 24,4 13 7 57 31 N 1012,7 57 0,0
14.06.2019 08:00:00 26,7 10,8 22,6 26 14 49 26 ONO 1010,7 51 0,0
14.06.2019 07:00:00 24,3 11,9 19,8 8 4 35 19 ONO 1011,3 55 0,0
14.06.2019 06:00:00 23,2 11,3 19,3 15 8 30 16 ONO 1011,4 60 0,0
14.06.2019 05:00:00 22,4 9,2 16,5 15 8 24 13 NO 1012,4 60 0,0
14.06.2019 04:00:00 18,8 7,9 15,2 10 6 16 9 N 1013,5 60 0,0
14.06.2019 03:00:00 19,1 6,9 13,2 9 5 15 8 N 1014,3 60 0,0
14.06.2019 02:00:00 18,6 5,4 14,5 6 3 16 8 NW 1014,5 60 0,0
14.06.2019 01:00:00 20,3 6,2 15,6 10 5 26 14 N 1014,2 60 0,0
14.06.2019 00:00:00 18,6 6,4 15,7 9 5 14 8 N 1015,6 60 0,0
13.06.2019 23:00:00 19,0 5,8 16,0 11 6 19 10 NNO 1015,2 60 0,0
13.06.2019 22:00:00 19,3 7,7 15,8 11 6 19 10 NO 1014,8 60 0,0
13.06.2019 21:00:00 19,7 12,0 17,0 7 4 24 13 ONO 1015,0 60 0,0
13.06.2019 20:00:00 20,3 14,2 19,3 15 8 24 13 O 1015,1 60 0,0
13.06.2019 19:00:00 20,7 13,6 20,8 13 7 26 14 OZO 1015,4 52 0,0
13.06.2019 18:00:00 20,7 13,6 21,8 12 7 22 12 OZO 1015,3 50 0,0
13.06.2019 17:00:00 22,4 12,1 29,1 10 6 22 12 ZZO 1016,2 56 0,0
13.06.2019 16:00:00 22,3 11,4 32,2 13 7 23 12 ZO 1016,3 20 0,0
13.06.2019 15:00:00 22,5 10,9 31,8 9 5 20 11 ZZO 1016,4 20 0,0
13.06.2019 14:00:00 22,9 12,5 30,3 13 7 24 13 ZO 1016,5 54 0,0
13.06.2019 13:00:00 22,5 9,6 31,4 13 7 21 12 ZO 1016,1 60 0,0
13.06.2019 12:00:00 21,9 10,1 30,0 8 5 19 10 ZO 1016,3 19 0,0
13.06.2019 11:00:00 21,2 11,2 29,1 11 6 18 10 ZO 1016,7 56 0,0
13.06.2019 10:00:00 21,4 9,3 28,7 9 5 13 7 OZO 1016,2 20 0,0
13.06.2019 09:00:00 20,5 8,8 23,0 0 0 6 4 N 1015,9 55 0,0
13.06.2019 08:00:00 17,0 9,7 14,3 3 2 9 5 WNW 1015,6 55 0,0
13.06.2019 07:00:00 12,0 8,7 2,5 3 2 8 4 NW 1015,4 60 0,0
13.06.2019 06:00:00 8,8 6,6 2,5 3 2 9 5 NNW 1014,8 58 0,0
13.06.2019 05:00:00 11,1 6,8 3,0 0 0 11 6 N 1014,3 60 0,0
13.06.2019 04:00:00 12,2 7,9 3,6 6 4 11 6 NW 1014,4 60 0,0
13.06.2019 03:00:00 10,7 7,6 4,2 4 2 9 5 W 1015,0 60 0,0
13.06.2019 02:00:00 12,8 8,1 4,7 4 2 7 4 NNO 1015,4 60 0,0
13.06.2019 01:00:00 13,5 8,3 5,8 4 2 9 5 NW 1015,4 60 0,0
13.06.2019 00:00:00 16,2 8,7 10,5 5 3 22 12 WNW 1015,4 60 0,0
12.06.2019 23:00:00 16,9 9,3 11,2 12 7 29 16 W 1014,9 60 0,0
12.06.2019 22:00:00 17,3 9,9 14,5 13 7 39 21 W 1014,5 60 0,0
12.06.2019 21:00:00 17,7 9,8 15,5 16 9 30 16 WZW 1013,8 60 0,0
12.06.2019 20:00:00 19,2 9,4 20,0 13 7 43 23 WZW 1013,1 60 0,0
12.06.2019 19:00:00 20,3 8,0 23,0 27 15 54 29 WZW 1013,0 25 0,0
12.06.2019 18:00:00 21,4 9,0 23,9 32 18 53 29 WZW 1013,1 20 0,0
12.06.2019 17:00:00 20,4 11,3 23,8 43 23 64 34 WZW 1013,2 21 0,0
12.06.2019 16:00:00 20,6 11,5 25,2 42 23 55 30 WZW 1013,0 25 0,0
12.06.2019 15:00:00 21,5 12,1 26,0 35 19 56 31 WZW 1012,6 28 0,0
12.06.2019 14:00:00 21,6 12,2 26,9 38 20 51 27 WZW 1012,3 20 0,0
12.06.2019 13:00:00 22,1 11,5 27,9 31 17 46 25 WZW 1012,3 20 0,0
12.06.2019 12:00:00 22,9 9,7 27,9 24 13 41 22 ZW 1012,1 55 0,0
12.06.2019 11:00:00 21,4 10,5 27,2 26 14 36 20 ZW 1012,1 60 0,0
12.06.2019 10:00:00 21,2 9,1 26,3 8 4 22 12 WZW 1011,9 54 0,0
12.06.2019 09:00:00 19,7 8,7 22,3 13 7 19 10 W 1011,7 60 0,2
12.06.2019 08:00:00 17,4 10,5 17,2 8 4 11 6 WNW 1011,7 60 0,0
12.06.2019 07:00:00 15,5 9,8 9,9 5 3 19 10 WNW 1011,2 60 0,0
12.06.2019 06:00:00 13,8 9,6 7,6 10 5 19 10 NW 1011,0 60 0,0
12.06.2019 05:00:00 14,8 10,6 8,2 5 3 11 6 W 1010,8 60 0,0
12.06.2019 04:00:00 15,8 10,8 13,0 7 4 19 10 NNW 1011,0 60 0,0
12.06.2019 03:00:00 16,3 10,8 10,5 7 4 16 8 W 1011,0 60 0,0
12.06.2019 02:00:00 17,0 11,0 14,1 6 3 13 7 NNW 1010,9 60 0,0
12.06.2019 01:00:00 17,6 11,6 14,7 10 5 18 10 W 1011,0 60 0,0
12.06.2019 00:00:00 17,7 10,8 13,9 0 0 16 9 N 1011,0 56 0,0
11.06.2019 23:00:00 17,5 10,6 15,0 8 5 24 13 NNW 1011,0 60 0,0

tt = temperatuur
td = dauwpunt
tt 5cm = temperatuur 5cm
ff = windsnelheid
fx = windstoten
dd = windrichting
ppp = luchtdruk
vv = zicht
rr = neerslag

Weerstations in de omgeving